GFSFLT1_850_dewp_243.txt.gz
Dewpoint
-3 0 8 10 11 11 12 13 13 15 14 14 15 14 14 14 14 13 13 12 12 12 14 13 11 11 11 11 11 12 11 11
-4 -3 7 10 10 11 12 13 12 14 15 14 15 15 14 14 14 14 14 13 11 11 10 12 11 11 11 11 11 12 11 12
-5 -4 2 8 10 10 11 12 12 12 12 14 13 15 14 13 14 14 14 13 12 12 9 8 9 10 10 10 12 12 12 12
-5 -4 -3 5 8 10 10 11 12 12 11 14 14 15 15 14 14 14 12 7 6 5 9 8 8 8 8 9 11 12 13 12
-5 -5 -4 -3 4 7 9 10 11 12 12 13 14 14 14 13 13 13 10 7 5 3 3 5 6 7 8 8 11 12 12 13
-5 -5 -5 -4 -3 4 9 9 10 12 12 11 11 13 12 13 14 12 10 8 8 7 7 5 6 7 7 10 12 12 12 12
-5 -5 -5 -5 -2 3 9 10 10 11 11 12 12 11 13 14 13 12 10 9 10 10 8 7 5 7 9 12 12 12 12 11
-5 -6 -5 -4 -2 2 7 11 11 11 11 12 11 11 11 13 13 12 11 11 11 10 9 7 3 6 10 12 12 11 11 12
-6 -4 -5 -4 -4 -1 2 8 11 10 10 10 11 11 11 12 13 13 12 11 10 9 10 8 4 6 11 12 12 12 12 11
-6 -6 -5 -4 -4 -3 -1 2 11 13 9 7 10 12 12 13 13 13 12 12 10 10 11 8 6 8 11 13 13 11 12 12
-5 -5 -6 -4 -4 -4 -2 -1 0 11 14 9 4 11 13 13 14 14 14 13 12 11 11 10 8 11 13 13 12 12 12 11
-6 -6 -3 -3 -3 -3 -3 -1 1 2 14 13 12 13 14 14 14 14 14 13 13 12 11 11 11 14 15 13 13 12 12 11
-5 -4 -4 -2 -3 -3 -2 -1 0 1 4 13 13 13 13 13 13 14 14 13 13 13 12 12 14 14 13 13 13 12 10 5
-1 -2 -2 -2 -2 -2 -1 -0 -0 0 2 8 12 13 11 12 13 14 14 14 13 13 12 12 13 13 13 12 12 11 6 -5
1 1 1 1 2 2 2 3 3 3 6 8 11 12 12 12 12 14 14 14 14 13 13 13 13 13 12 12 11 7 -4 -12
5 5 4 4 6 9 7 6 6 6 6 7 9 10 12 12 14 15 15 14 14 14 13 13 13 12 12 11 8 -1 -10 -12
3 4 4 5 6 8 12 12 11 11 10 10 10 12 12 12 14 14 15 14 14 14 13 13 12 12 11 9 5 -7 -11 -12
-3 2 5 4 6 7 8 9 11 12 13 13 14 14 13 12 13 14 15 14 13 13 12 12 11 11 10 7 -3 -10 -12 -13
-1 0 5 4 3 4 6 7 8 7 7 10 13 14 14 13 14 15 14 14 13 13 12 11 11 11 7 -1 -9 -10 -12 -15

GFSFLT1_850_dewp_246.txt.gz
Dewpoint
13 12 10 10 10 12 12 12 14 13 12 8 6 7 8 8 7 7 8 9 10 10 10 11 12 10 11 12 12 12 12 10
9 11 12 11 11 12 12 13 13 14 13 13 11 9 10 11 11 9 10 10 10 11 11 12 12 10 11 12 11 11 11 11
-4 6 10 11 11 11 12 12 12 13 12 10 13 12 12 13 13 12 13 12 11 12 11 11 10 11 10 11 11 11 11 12
-5 -5 3 7 9 10 11 12 12 12 12 12 14 14 14 14 14 14 14 14 13 13 12 11 10 10 9 10 11 10 11 12
-5 -5 -4 4 5 8 9 11 11 11 12 13 12 10 13 13 14 14 14 14 14 13 13 13 12 9 9 9 10 10 11 11
-5 -5 -5 -3 -1 6 8 9 11 11 11 11 12 10 6 12 14 14 14 14 13 13 13 11 13 11 8 8 9 9 10 12
-4 -5 -5 -4 -1 3 8 9 10 11 11 11 12 10 9 11 13 13 13 13 13 12 11 6 6 10 8 7 9 9 10 12
-4 -5 -5 -4 -3 1 7 9 10 11 11 12 11 11 11 9 8 8 11 12 13 12 7 5 3 5 6 8 9 8 11 12
-5 -5 -5 -5 -4 -0 5 6 9 11 11 11 10 10 11 11 10 8 7 7 9 10 8 7 6 6 6 9 9 9 12 12
-5 -5 -5 -5 -5 -4 -1 2 3 8 8 10 10 10 12 12 10 9 8 6 7 9 8 9 9 9 9 10 9 10 12 12
-5 -4 -5 -5 -5 -5 -2 -2 -2 1 5 8 8 9 10 12 11 10 8 7 8 9 10 10 11 11 11 10 9 12 13 12
-3 -5 -5 -5 -5 -4 0 2 0 3 4 7 9 11 11 13 12 11 10 9 9 10 10 11 11 12 12 10 9 14 12 11
-3 -3 -3 -5 -5 -4 -2 2 4 5 5 8 9 8 12 13 12 12 11 11 10 11 12 12 12 11 12 11 10 14 12 12
-4 -4 -4 -4 -5 -5 -3 -3 0 7 11 12 12 11 12 13 12 13 12 12 12 13 13 13 12 12 12 10 10 13 13 12
2 -2 -2 -3 -4 -4 -3 -2 -2 3 8 12 13 12 12 12 12 13 13 12 13 13 13 13 13 12 12 12 11 13 12 12
2 7 7 3 0 -0 -1 -1 -0 0 3 9 13 10 11 13 14 13 12 13 12 13 14 13 13 11 12 12 12 12 12 11
1 1 8 8 9 6 4 2 2 3 5 7 8 11 12 14 14 13 12 11 11 12 12 13 12 13 12 12 11 11 10 10
2 1 -0 10 6 11 11 10 9 9 9 10 10 11 12 12 12 12 12 12 12 12 13 13 13 10 11 10 12 12 11 9
3 1 -2 -1 8 7 8 10 12 12 12 12 12 12 12 12 12 13 13 12 11 12 14 13 13 13 11 12 12 11 10 4

GFSFLT1_850_dewp_252.txt.gz
Dewpoint
10 12 11 11 10 10 10 9 8 5 3 3 5 6 9 9 8 4 2 2 3 4 5 6 7 7 5 9 10 11 11 11
5 12 11 11 11 11 11 10 10 8 4 2 2 3 8 7 6 4 2 3 3 4 6 6 7 8 9 11 11 11 11 11
5 12 13 11 11 11 11 10 9 9 9 6 2 0 2 3 1 3 2 3 4 5 5 6 7 8 9 10 11 11 12 12
-0 11 13 11 11 11 10 11 9 9 10 10 8 5 4 3 1 -0 1 2 4 5 5 6 7 8 8 10 10 11 11 12
-2 7 12 12 11 10 10 10 10 10 11 11 10 8 5 2 -0 -1 -1 1 3 4 5 6 7 8 8 9 11 11 12 12
-2 -2 9 6 8 10 10 10 11 11 12 12 12 11 10 7 4 3 2 1 1 4 5 6 7 8 9 7 10 12 12 12
-2 -3 -3 3 3 10 10 11 10 11 11 11 12 12 12 11 10 7 5 4 3 4 5 8 7 8 8 8 8 11 12 12
-3 -3 -3 -3 2 9 11 11 11 11 11 11 11 12 13 12 11 10 8 6 6 5 5 5 7 7 9 10 10 10 11 12
-3 -3 -3 -4 -4 -2 7 8 9 11 11 10 9 11 12 12 12 11 9 8 6 6 6 6 7 8 10 11 12 12 12 12
-3 -3 -3 -3 -4 -4 -4 -0 3 5 3 5 9 11 11 11 10 11 11 9 8 7 6 7 7 8 10 11 11 13 13 13
-3 -3 -3 -3 -3 -4 -4 -4 -4 -3 -1 2 4 7 8 7 11 11 10 9 9 8 7 7 8 8 9 11 12 12 13 14
-4 -4 -4 -4 -4 -4 -4 -4 -3 -2 2 4 6 9 7 8 11 10 10 10 9 9 8 7 7 8 9 11 12 13 13 13
-1 -2 -1 -2 -3 -4 -4 -4 -3 -3 -0 6 5 5 8 11 10 8 10 10 10 9 10 9 9 9 9 10 11 11 13 13
1 1 2 1 -0 -2 -2 -3 -3 -0 5 6 7 7 10 11 9 8 11 10 10 11 11 10 10 10 9 10 11 11 12 13
2 0 0 0 0 2 3 -1 -2 -2 -1 2 5 6 7 8 6 9 12 11 12 12 12 11 12 11 11 11 11 11 11 12
3 2 3 2 2 6 6 7 2 -2 -2 -1 -1 -1 3 8 9 12 12 12 12 12 13 13 13 12 12 12 11 11 11 11
5 4 3 3 3 4 10 12 9 3 -2 -2 -2 -0 1 7 10 12 12 13 13 13 13 13 13 13 12 12 11 11 11 11
5 4 4 3 2 5 11 12 13 9 3 1 5 5 5 8 12 13 14 13 14 13 14 14 13 13 12 12 10 10 9 10
3 5 5 3 2 6 10 11 12 11 8 5 4 9 10 11 14 14 14 14 14 14 14 14 14 13 12 11 9 8 10 11

GFSFLT1_850_dewp_258.txt.gz
Dewpoint
-3 -3 2 8 11 14 14 15 14 14 14 14 14 14 14 14 14 9 6 0 -1 -1 5 6 -1 7 5 7 8 10 12 12
-2 -2 1 8 12 14 15 15 14 14 13 14 14 14 14 14 13 10 9 6 0 -0 3 1 -1 7 8 4 6 10 12 12
-2 -1 3 10 12 14 15 15 15 14 13 13 13 14 14 14 12 10 10 10 6 0 1 4 1 6 8 10 6 9 12 13
-5 -2 3 10 12 14 15 15 14 14 14 14 14 14 14 14 12 9 10 10 10 6 1 4 3 3 8 8 7 9 10 13
-4 -3 -0 8 12 13 14 15 14 14 14 14 14 13 13 10 9 8 12 13 12 11 5 3 3 3 8 7 8 9 10 12
-3 -4 -3 2 11 12 14 14 14 15 14 13 14 13 12 13 13 12 9 13 12 11 9 3 3 3 4 7 7 8 12 12
-3 -2 -3 -3 3 12 14 14 14 15 14 12 12 10 12 13 13 13 12 11 10 11 10 7 2 3 4 5 7 7 10 12
-5 -3 -3 -3 -2 8 13 14 14 15 15 12 11 10 10 11 11 11 13 10 7 5 8 8 5 3 4 5 6 7 8 12
-4 -4 -3 -3 -2 -1 12 13 13 14 15 13 12 11 11 10 10 11 11 10 6 2 0 3 5 5 4 5 5 6 7 8
-3 -4 -4 -2 -3 -1 8 13 13 13 13 12 12 12 11 11 9 9 9 10 10 9 7 3 1 0 3 3 3 5 7 8
-3 -2 -3 -3 -2 -2 0 11 11 10 7 7 7 10 11 10 10 10 9 10 11 12 11 10 8 5 2 2 2 3 6 6
3 -1 -2 -3 -2 -2 -0 9 11 13 10 3 5 4 10 12 11 10 9 10 11 11 11 11 11 11 9 6 4 5 6 6
2 2 3 1 -1 -1 1 2 10 11 6 -0 -1 -0 7 10 10 10 10 10 11 11 12 12 13 12 12 10 8 7 7 7
4 4 4 3 5 6 2 2 4 9 12 13 2 4 8 6 4 7 11 11 11 12 13 13 12 11 12 12 11 10 10 9
4 4 4 5 5 6 8 8 4 6 9 12 13 7 -1 -2 2 9 10 8 11 13 13 11 13 14 13 13 13 12 11 11
4 4 4 5 6 7 9 9 10 6 6 10 13 12 6 3 1 5 9 11 11 14 14 14 14 14 15 14 14 12 12 12
3 5 4 3 3 4 6 9 10 9 5 6 11 13 14 9 6 4 6 9 13 14 14 14 14 14 12 13 14 13 13 13
2 3 5 3 2 3 4 8 10 11 11 9 5 11 13 14 11 10 9 11 14 14 14 14 14 13 13 14 14 14 14 14
2 1 2 2 3 2 3 5 8 9 10 11 11 9 8 13 14 13 13 14 14 14 15 15 15 14 14 14 13 14 14 14

GFSFLT1_850_dewp_264.txt.gz
Dewpoint
-8 -6 -5 -3 -2 3 12 13 13 14 13 13 13 13 12 13 12 12 10 6 10 9 8 10 8 7 7 7 8 8 10 11
-7 -5 -5 -5 -2 2 11 12 13 13 14 12 14 13 14 13 13 12 12 9 5 9 7 10 8 8 8 7 8 7 10 11
-6 -6 -5 -5 -4 -2 9 12 12 13 14 14 13 14 14 13 14 13 13 12 7 7 5 10 9 8 8 7 7 8 9 11
-11 -5 -5 -3 -6 -2 8 12 12 13 14 15 13 14 14 14 14 14 13 13 11 5 1 7 10 8 7 8 6 6 7 11
-12 -11 -5 -3 -1 -2 -2 12 13 14 14 15 15 14 14 14 14 14 14 13 13 11 5 4 10 8 7 7 7 4 6 10
-14 -12 -10 -6 -3 -2 -1 10 14 14 14 15 15 14 14 14 14 13 14 14 14 13 11 6 10 10 8 7 7 5 4 6
-1 -13 -13 -10 -8 -7 -2 8 13 15 14 14 15 15 14 14 14 14 14 15 14 14 12 11 8 11 9 8 7 4 2 3
3 3 2 -0 -9 -8 -6 10 12 14 14 13 14 14 15 14 14 14 15 15 14 14 12 13 11 9 10 7 7 7 3 4
2 3 4 4 1 -3 -8 8 12 13 14 14 13 14 15 14 14 14 15 14 12 13 13 14 13 11 10 9 7 7 7 5
2 3 3 2 2 1 2 -4 12 12 14 14 13 14 15 15 14 14 14 14 13 11 13 14 14 13 11 11 9 8 7 5
2 3 3 2 2 2 2 0 0 13 11 14 14 14 15 15 15 15 15 14 13 12 11 14 14 14 13 12 10 10 10 9
3 3 3 4 5 5 4 2 1 8 13 13 14 14 15 15 15 15 15 14 13 13 12 11 12 14 14 13 10 10 11 11
3 3 3 4 5 6 5 6 5 3 12 13 14 15 15 16 15 15 15 14 14 13 13 12 11 12 12 12 10 10 10 11
2 2 2 3 5 6 7 8 8 8 7 12 12 14 13 15 15 15 15 15 15 14 13 13 13 12 12 11 11 11 10 9
1 1 1 3 3 4 5 6 7 9 8 10 13 11 13 14 14 15 15 15 15 15 14 13 13 13 12 12 12 13 13 12
1 1 1 2 2 4 4 5 6 7 9 10 10 12 13 13 16 16 15 15 16 15 15 14 14 14 14 13 13 13 13 13
2 1 1 1 2 2 2 2 4 6 8 9 10 10 12 13 13 13 13 14 14 16 16 15 15 14 14 13 13 13 13 14
2 2 1 1 1 2 1 2 2 3 6 7 8 9 10 12 14 14 13 15 15 16 16 16 15 14 14 14 14 14 13 13
-3 -0 1 1 -0 1 1 0 1 2 2 4 6 8 8 10 12 13 15 14 15 15 15 15 16 15 15 15 15 15 15 15